EWG1EV LFMN-EDDS

Flight info

Callsign EWG1EV
Flight time 0h 55m
Altitude 32000
Route BASIP DCT ANAKI DCT ABESI DCT UTAVO DCT SOPER N851 ROMIR/N0358F220 T125 REUTL REUTL1W
Aircraft A320/M-SDE3FGHIRWY/LB1

Departure

Time 2026-05-05 18:10
Airport Nice-Côte d'Azur Airport (LFMN)

Arrival

Time 2026-05-05 19:05
Airport Stuttgart Airport (EDDS)
Time Latitude Longitude Altitude Speed Heading
2026-05-05 17:55 43.66476 7.21493 25 ft 0 kts 315°
2026-05-05 18:04 43.66471 7.21499 22 ft 4 kts 315°
2026-05-05 18:04 43.66455 7.21522 22 ft 2 kts 315°
2026-05-05 18:04 43.66439 7.21548 23 ft 4 kts 287°
2026-05-05 18:05 43.66441 7.21574 24 ft 3 kts 226°
2026-05-05 18:05 43.66451 7.21586 23 ft 0 kts 225°
2026-05-05 18:07 43.66436 7.21566 22 ft 13 kts 225°
2026-05-05 18:07 43.66331 7.21405 21 ft 31 kts 230°
2026-05-05 18:07 43.66165 7.21181 21 ft 31 kts 224°
2026-05-05 18:07 43.65977 7.21058 23 ft 31 kts 171°
2026-05-05 18:08 43.65796 7.20931 21 ft 31 kts 224°
2026-05-05 18:08 43.65635 7.20723 21 ft 32 kts 214°
2026-05-05 18:08 43.65419 7.20715 20 ft 32 kts 169°
2026-05-05 18:08 43.65217 7.20664 21 ft 31 kts 223°
2026-05-05 18:09 43.65034 7.20506 21 ft 31 kts 212°
2026-05-05 18:09 43.64886 7.20307 21 ft 30 kts 223°
2026-05-05 18:09 43.64732 7.20198 22 ft 23 kts 152°
2026-05-05 18:09 43.64726 7.20320 23 ft 17 kts 47°
2026-05-05 18:10 43.64951 7.20632 24 ft 80 kts 45°
2026-05-05 18:10 43.65493 7.21378 24 ft 136 kts 45°
2026-05-05 18:10 43.66239 7.22409 362 ft 153 kts 47°
2026-05-05 18:10 43.66823 7.23638 950 ft 154 kts 74°
2026-05-05 18:11 43.66914 7.25120 1505 ft 166 kts 100°
2026-05-05 18:11 43.66358 7.26629 1812 ft 191 kts 131°
2026-05-05 18:11 43.65398 7.28059 2208 ft 212 kts 133°
2026-05-05 18:11 43.64378 7.29578 2930 ft 218 kts 134°
2026-05-05 18:12 43.63516 7.31288 3669 ft 225 kts 110°
2026-05-05 18:12 43.63442 7.33445 4398 ft 232 kts 76°
2026-05-05 18:12 43.63960 7.35571 5173 ft 235 kts 71°
2026-05-05 18:12 43.64522 7.37709 5916 ft 239 kts 71°
2026-05-05 18:13 43.65101 7.39887 6618 ft 244 kts 71°
2026-05-05 18:13 43.65687 7.42100 7328 ft 247 kts 71°
2026-05-05 18:13 43.66277 7.44350 8048 ft 251 kts 71°
2026-05-05 18:13 43.66871 7.46629 8780 ft 254 kts 71°
2026-05-05 18:14 43.67473 7.48945 9520 ft 258 kts 71°
2026-05-05 18:14 43.68108 7.51363 9915 ft 279 kts 70°
2026-05-05 18:14 43.68807 7.53992 10183 ft 303 kts 70°
2026-05-05 18:14 43.69563 7.56832 10431 ft 327 kts 70°
2026-05-05 18:15 43.70374 7.59881 10644 ft 350 kts 70°
2026-05-05 18:15 43.71240 7.63134 10933 ft 368 kts 70°
2026-05-05 18:15 43.72135 7.66495 11511 ft 376 kts 71°
2026-05-05 18:15 43.73079 7.69898 12162 ft 383 kts 65°
2026-05-05 18:16 43.74491 7.73040 12783 ft 389 kts 50°
2026-05-05 18:16 43.76286 7.75871 13428 ft 394 kts 48°
2026-05-05 18:16 43.78124 7.78731 14046 ft 399 kts 48°
2026-05-05 18:16 43.79977 7.81617 14645 ft 403 kts 48°
2026-05-05 18:17 43.81848 7.84545 15245 ft 407 kts 49°
2026-05-05 18:17 43.83731 7.87504 15837 ft 411 kts 49°
2026-05-05 18:17 43.85628 7.90490 16435 ft 415 kts 49°
2026-05-05 18:17 43.87550 7.93522 17023 ft 419 kts 49°
2026-05-05 18:18 43.89353 7.96639 17561 ft 421 kts 57°
2026-05-05 18:18 43.90873 8.00186 18098 ft 424 kts 62°
2026-05-05 18:18 43.92329 8.03768 18615 ft 428 kts 62°
2026-05-05 18:18 43.93780 8.07329 19055 ft 432 kts 62°
2026-05-05 18:19 43.95222 8.10863 19539 ft 434 kts 62°
2026-05-05 18:19 43.96718 8.14531 20015 ft 437 kts 62°
2026-05-05 18:19 43.98224 8.18218 20485 ft 441 kts 62°
2026-05-05 18:19 43.99740 8.21931 20931 ft 444 kts 62°
2026-05-05 18:20 44.01267 8.25686 21375 ft 448 kts 62°
2026-05-05 18:20 44.02286 8.28195 21667 ft 450 kts 62°
2026-05-05 18:20 44.04348 8.33290 22241 ft 454 kts 62°
2026-05-05 18:20 44.05900 8.37138 22657 ft 458 kts 62°
2026-05-05 18:21 44.06935 8.39707 22943 ft 460 kts 62°
2026-05-05 18:21 44.08505 8.43606 23368 ft 463 kts 63°
2026-05-05 18:21 44.10084 8.47533 23735 ft 466 kts 62°
2026-05-05 18:21 44.11675 8.51484 24068 ft 470 kts 63°
2026-05-05 18:22 44.13279 8.55477 24376 ft 474 kts 63°
2026-05-05 18:22 44.14896 8.59504 24687 ft 478 kts 63°
2026-05-05 18:22 44.16691 8.63418 24987 ft 483 kts 53°
2026-05-05 18:22 44.18949 8.66901 25288 ft 486 kts 42°
2026-05-05 18:23 44.21610 8.69819 25593 ft 488 kts 31°
2026-05-05 18:23 44.24591 8.72063 25874 ft 487 kts 19°
2026-05-05 18:23 44.27789 8.73553 26221 ft 483 kts
2026-05-05 18:23 44.31091 8.74287 26567 ft 480 kts
2026-05-05 18:24 44.34426 8.74796 26891 ft 483 kts
2026-05-05 18:24 44.37772 8.75311 27212 ft 485 kts
2026-05-05 18:24 44.41136 8.75836 27531 ft 488 kts
2026-05-05 18:24 44.44475 8.76365 27839 ft 490 kts
2026-05-05 18:25 44.47871 8.76906 28134 ft 492 kts
2026-05-05 18:25 44.50172 8.77271 28330 ft 494 kts
2026-05-05 18:25 44.54704 8.77994 28729 ft 497 kts
2026-05-05 18:25 44.58145 8.78546 28992 ft 498 kts
2026-05-05 18:26 44.61599 8.79097 29265 ft 501 kts 360°
2026-05-05 18:26 44.65067 8.79646 29545 ft 503 kts 360°
2026-05-05 18:26 44.68548 8.80195 29918 ft 502 kts 360°
2026-05-05 18:26 44.72015 8.80746 30298 ft 501 kts 359°
2026-05-05 18:27 44.75476 8.81301 30617 ft 501 kts 359°
2026-05-05 18:27 44.78942 8.81858 30919 ft 501 kts 359°
2026-05-05 18:27 44.82407 8.82415 31222 ft 501 kts 359°
2026-05-05 18:27 44.85868 8.82970 31539 ft 501 kts 359°
2026-05-05 18:28 44.92798 8.84074 31953 ft 501 kts 359°
2026-05-05 18:28 44.99828 8.85185 31967 ft 514 kts 359°
2026-05-05 18:29 45.06975 8.86324 31974 ft 518 kts 359°
2026-05-05 18:29 45.14136 8.87491 31974 ft 518 kts 360°
2026-05-05 18:30 45.21308 8.88674 31984 ft 518 kts 360°
2026-05-05 18:30 45.28479 8.89842 31986 ft 518 kts
2026-05-05 18:31 45.35586 8.90980 31987 ft 517 kts
2026-05-05 18:31 45.42745 8.92140 31994 ft 517 kts
2026-05-05 18:32 45.49896 8.93316 31987 ft 517 kts
2026-05-05 18:32 45.57042 8.94494 31977 ft 517 kts
2026-05-05 18:33 45.64189 8.95680 31979 ft 516 kts
2026-05-05 18:33 45.71335 8.96859 31986 ft 516 kts
2026-05-05 18:34 45.78467 8.98034 31988 ft 516 kts
2026-05-05 18:34 45.85600 8.99204 32004 ft 515 kts
2026-05-05 18:35 45.92725 9.00396 32006 ft 515 kts
2026-05-05 18:35 45.99841 9.01587 31999 ft 515 kts
2026-05-05 18:36 46.06916 9.02768 32006 ft 515 kts
2026-05-05 18:36 46.14039 9.03944 31998 ft 513 kts 359°
2026-05-05 18:37 46.21070 9.03602 31986 ft 503 kts 348°
2026-05-05 18:37 46.28039 9.02644 31992 ft 504 kts 348°
2026-05-05 18:38 46.35021 9.01717 31982 ft 503 kts 348°
2026-05-05 18:38 46.41999 9.00798 31970 ft 503 kts 348°
2026-05-05 18:39 46.48967 8.99861 31955 ft 503 kts 348°
2026-05-05 18:39 46.55946 8.98913 31958 ft 504 kts 348°
2026-05-05 18:40 46.62931 8.97962 31950 ft 504 kts 348°
2026-05-05 18:40 46.69913 8.97023 31955 ft 504 kts 348°
2026-05-05 18:41 46.76894 8.96090 31987 ft 503 kts 349°
2026-05-05 18:41 46.83814 8.95149 31961 ft 502 kts 349°
2026-05-05 18:42 46.90765 8.94195 31940 ft 501 kts 349°
2026-05-05 18:42 46.97702 8.93245 31930 ft 501 kts 349°
2026-05-05 18:43 47.04606 8.92291 31914 ft 489 kts 350°
2026-05-05 18:43 47.11281 8.91375 31878 ft 478 kts 351°
2026-05-05 18:44 47.14591 8.90911 31688 ft 476 kts 350°
2026-05-05 18:44 47.17878 8.90452 31164 ft 475 kts 351°
2026-05-05 18:44 47.21207 8.89987 29902 ft 485 kts 351°
2026-05-05 18:44 47.24599 8.89524 28568 ft 494 kts 353°
2026-05-05 18:45 47.28017 8.89575 28062 ft 487 kts
2026-05-05 18:45 47.31350 8.90334 27331 ft 484 kts 12°
2026-05-05 18:45 47.34554 8.91772 26652 ft 479 kts 18°
2026-05-05 18:45 47.37683 8.93373 25985 ft 474 kts 18°
2026-05-05 18:46 47.40785 8.94970 25322 ft 469 kts 18°
2026-05-05 18:46 47.46477 8.97912 24117 ft 462 kts 19°
2026-05-05 18:46 47.49522 8.99483 23469 ft 458 kts 19°
2026-05-05 18:47 47.52519 9.01027 22785 ft 453 kts 19°
2026-05-05 18:47 47.55477 9.02553 22211 ft 446 kts 18°
2026-05-05 18:47 47.58382 9.04054 21647 ft 440 kts 18°
2026-05-05 18:47 47.61258 9.05546 21126 ft 434 kts 18°
2026-05-05 18:48 47.64089 9.07019 20604 ft 429 kts 18°
2026-05-05 18:48 47.66877 9.08519 20126 ft 423 kts 22°
2026-05-05 18:48 47.69418 9.10528 19632 ft 418 kts 33°
2026-05-05 18:48 47.71676 9.13195 19202 ft 412 kts 44°
2026-05-05 18:49 47.73553 9.16349 18836 ft 404 kts 54°
2026-05-05 18:49 47.75084 9.19836 18310 ft 402 kts 59°
2026-05-05 18:49 47.76648 9.23285 17729 ft 401 kts 51°
2026-05-05 18:49 47.78619 9.26204 17213 ft 398 kts 38°
2026-05-05 18:50 47.80924 9.28431 16705 ft 393 kts 25°
2026-05-05 18:50 47.83459 9.29886 16208 ft 388 kts 12°
2026-05-05 18:50 47.86101 9.30546 15770 ft 382 kts
2026-05-05 18:50 47.88691 9.31049 15677 ft 369 kts
2026-05-05 18:51 47.91215 9.31712 15075 ft 372 kts
2026-05-05 18:51 47.93758 9.32466 14312 ft 381 kts
2026-05-05 18:51 47.96389 9.33268 13776 ft 381 kts
2026-05-05 18:51 47.98947 9.34032 13259 ft 378 kts
2026-05-05 18:52 48.01526 9.34777 12728 ft 376 kts
2026-05-05 18:52 48.04084 9.35491 12207 ft 373 kts
2026-05-05 18:52 48.06666 9.36196 11673 ft 371 kts
2026-05-05 18:52 48.09159 9.36871 11148 ft 369 kts
2026-05-05 18:53 48.11676 9.37551 10628 ft 366 kts
2026-05-05 18:53 48.14174 9.38227 10123 ft 364 kts
2026-05-05 18:53 48.16631 9.38897 9928 ft 352 kts
2026-05-05 18:53 48.18997 9.39549 9802 ft 339 kts
2026-05-05 18:54 48.21276 9.40181 9673 ft 328 kts
2026-05-05 18:54 48.23479 9.40792 9533 ft 317 kts
2026-05-05 18:54 48.25639 9.41384 9155 ft 315 kts
2026-05-05 18:54 48.27787 9.41970 8876 ft 313 kts
2026-05-05 18:55 48.29932 9.42556 8848 ft 314 kts
2026-05-05 18:55 48.32090 9.43146 8855 ft 315 kts
2026-05-05 18:55 48.34218 9.43731 8849 ft 314 kts
2026-05-05 18:55 48.36364 9.44326 8497 ft 312 kts
2026-05-05 18:56 48.38494 9.44914 8086 ft 310 kts
2026-05-05 18:56 48.40607 9.45497 7711 ft 308 kts
2026-05-05 18:56 48.42709 9.46076 7346 ft 306 kts
2026-05-05 18:56 48.44792 9.46650 6939 ft 304 kts
2026-05-05 18:57 48.46869 9.47224 6485 ft 302 kts
2026-05-05 18:57 48.48936 9.47795 6118 ft 300 kts
2026-05-05 18:57 48.50975 9.48362 6003 ft 298 kts
2026-05-05 18:57 48.53019 9.48930 6007 ft 299 kts
2026-05-05 18:58 48.55068 9.49492 6012 ft 299 kts
2026-05-05 18:58 48.57091 9.50051 6011 ft 299 kts
2026-05-05 18:58 48.59140 9.50621 5909 ft 297 kts
2026-05-05 18:58 48.61165 9.51189 5458 ft 296 kts
2026-05-05 18:59 48.63161 9.51753 5253 ft 285 kts
2026-05-05 18:59 48.65066 9.52291 5125 ft 273 kts
2026-05-05 18:59 48.66897 9.52805 4965 ft 263 kts
2026-05-05 18:59 48.68678 9.53305 4676 ft 258 kts
2026-05-05 19:00 48.70441 9.53798 4339 ft 256 kts
2026-05-05 19:00 48.72187 9.54266 4061 ft 252 kts
2026-05-05 19:00 48.73822 9.53945 4010 ft 225 kts 328°
2026-05-05 19:00 48.74806 9.52415 4017 ft 192 kts 283°
2026-05-05 19:01 48.74718 9.50514 4022 ft 184 kts 240°
2026-05-05 19:01 48.74011 9.48913 4015 ft 185 kts 244°
2026-05-05 19:01 48.73647 9.47049 4025 ft 186 kts 254°
2026-05-05 19:01 48.73306 9.45169 3936 ft 183 kts 253°
2026-05-05 19:02 48.72964 9.43335 3770 ft 177 kts 253°
2026-05-05 19:02 48.72631 9.41559 3536 ft 173 kts 253°
2026-05-05 19:02 48.72305 9.39818 3302 ft 170 kts 253°
2026-05-05 19:02 48.71983 9.38101 3079 ft 168 kts 253°
2026-05-05 19:03 48.71666 9.36411 2851 ft 166 kts 253°
2026-05-05 19:03 48.71359 9.34776 2653 ft 153 kts 253°
2026-05-05 19:03 48.71080 9.33290 2440 ft 142 kts 253°
2026-05-05 19:03 48.70813 9.31874 2249 ft 138 kts 252°
2026-05-05 19:04 48.70551 9.30483 2055 ft 138 kts 253°
2026-05-05 19:04 48.70287 9.29081 1867 ft 139 kts 254°
2026-05-05 19:04 48.70022 9.27676 1681 ft 139 kts 253°
2026-05-05 19:04 48.69758 9.26275 1496 ft 138 kts 253°
2026-05-05 19:05 48.69494 9.24880 1316 ft 137 kts 253°
2026-05-05 19:05 48.69241 9.23542 1206 ft 119 kts 253°
2026-05-05 19:05 48.69085 9.22710 1223 ft 56 kts 255°
2026-05-05 19:05 48.69008 9.22320 1232 ft 39 kts 252°
2026-05-05 19:06 48.68946 9.21871 1255 ft 42 kts 262°
2026-05-05 19:06 48.68975 9.21548 1260 ft 10 kts 296°
2026-05-05 19:06 48.68989 9.21477 1259 ft 0 kts 284°
2026-05-05 19:07 48.68990 9.21467 1265 ft 1 kts 282°
2026-05-05 19:07 48.68995 9.21428 1260 ft 8 kts 277°
2026-05-05 19:07 48.69007 9.21328 1265 ft 1 kts 318°
2026-05-05 19:07 48.69017 9.21300 1263 ft 7 kts 295°
2026-05-05 19:08 48.69033 9.21201 1265 ft 12 kts 278°
2026-05-05 19:08 48.69032 9.21067 1277 ft 16 kts 249°
2026-05-05 19:08 48.68999 9.20875 1274 ft 21 kts 255°
2026-05-05 19:08 48.68961 9.20665 1281 ft 21 kts 255°
2026-05-05 19:09 48.68919 9.20458 1284 ft 20 kts 256°
2026-05-05 19:09 48.68880 9.20247 1290 ft 22 kts 253°
2026-05-05 19:09 48.68838 9.20031 1295 ft 21 kts 247°
2026-05-05 19:09 48.68853 9.19891 1300 ft 9 kts 343°
2026-05-05 19:10 48.68888 9.19832 1304 ft 9 kts 277°
2026-05-05 19:10 48.68870 9.19716 1307 ft 13 kts 254°
2026-05-05 19:10 48.68844 9.19576 1310 ft 17 kts 253°
2026-05-05 19:10 48.68817 9.19448 1312 ft 5 kts 232°
2026-05-05 19:11 48.68778 9.19450 1311 ft 7 kts 165°
2026-05-05 19:11 48.68756 9.19459 1310 ft 2 kts 163°
2026-05-05 19:11 48.68755 9.19459 1310 ft 0 kts 163°